AG1T-20 Weather Reports


time (UTC)temp
F
wind
direction
speed
knots
gust
knots
rain 1hr
in
rain 24hr
in
rain mn
in
humidity
%
barometer
mb
20260504141004 49 217 0.0 1.7 0.00 0.00 0.00 61 1013.9
20260504082005 44 88 0.0 1.7 0.00 0.00 0.00 59 1012.9
20260504081005 44 263 0.0 1.7 0.00 0.00 0.00 65 1012.9
20260504050004 49 183 0.0 0.9 0.00 0.00 0.00 52 1013.5
20260504045005 50 16 0.0 0.9 0.00 0.00 0.00 52 1013.3
20260504044005 51 304 0.0 0.9 0.00 0.00 0.00 48 1013.3
20260504043005 51 87 0.0 1.7 0.00 0.00 0.00 45 1013.3
20260504042005 51 155 0.0 0.9 0.00 0.00 0.00 48 1013.3
20260504041005 52 336 0.0 1.7 0.00 0.00 0.00 43 1013.3
20260504040005 53 106 0.0 1.7 0.00 0.00 0.00 43 1013.3
20260504035004 53 114 0.0 1.7 0.00 0.00 0.00 43 1012.9
20260504034005 55 172 0.0 2.6 0.00 0.00 0.00 39 1012.9
20260504033005 55 167 0.0 0.9 0.00 0.00 0.00 47 1012.9
20260504032005 55 131 0.0 1.7 0.00 0.00 0.00 38 1012.9
20260504031005 55 239 0.0 0.9 0.00 0.00 0.00 42 1012.9
20260504030005 58 207 0.0 2.6 0.00 0.00 0.00 35 1012.9
20260504025005 58 196 0.9 4.3 0.00 0.00 0.00 34 1013.0
20260504024005 61 145 0.0 2.6 0.00 0.00 0.00 32 1013.0
20260504023005 63 139 0.9 3.5 0.00 0.00 0.00 31 1013.0
20260504022005 63 132 0.9 3.5 0.00 0.00 0.00 27 1013.0
20260504021004 65 14 0.0 0.0 0.00 0.00 0.00 25 1013.0
20260504020004 71 13 0.0 0.9 0.00 0.00 0.00 16 1013.0
20260504015005 73 353 0.0 0.9 0.00 0.00 0.00 15 1013.4
20260504014005 75 145 0.0 0.0 0.00 0.00 0.00 14 1013.4
20260504013005 78 129 0.0 0.0 0.00 0.00 0.00 14 1013.4
20260504012004 80 176 0.0 0.9 0.00 0.00 0.00 13 1013.4
20260504011005 79 15 0.0 0.9 0.00 0.00 0.00 13 1013.4
20260504010004 79 4 0.0 0.9 0.00 0.00 0.00 13 1013.4
20260504005004 77 157 0.0 2.6 0.00 0.00 0.00 12 1013.8
20260504004005 76 232 0.9 3.5 0.00 0.00 0.00 12 1013.8
20260504003005 74 166 0.9 6.1 0.00 0.00 0.00 13 1013.8
20260504002005 76 203 0.9 5.2 0.00 0.00 0.00 18 1013.8
20260504001005 77 196 0.9 6.1 0.00 0.00 0.00 13 1013.8
20260504000005 76 182 0.9 5.2 0.00 0.00 0.00 13 1013.8
20260503235004 74 230 1.7 8.7 0.00 0.00 0.00 13 1014.3
20260503234004 75 223 1.7 9.6 0.00 0.00 0.00 15 1014.3
20260503233005 77 210 0.9 6.1 0.00 0.00 0.00 14 1014.3
20260503232005 76 208 0.9 8.7 0.00 0.00 0.00 15 1014.3
20260503231004 75 185 1.7 6.1 0.00 0.00 0.00 13 1014.3
20260503230006 77 166 0.9 6.1 0.00 0.00 0.00 16 1014.3
20260503225005 75 304 0.9 6.1 0.00 0.00 0.00 18 1015.0
20260503224004 74 316 0.9 7.0 0.00 0.00 0.00 17 1015.0
20260503223004 75 332 0.9 7.8 0.00 0.00 0.00 16 1015.0
20260503222005 76 136 0.9 6.1 0.00 0.00 0.00 16 1015.0
20260503221004 74 306 0.9 6.1 0.00 0.00 0.00 18 1015.0
20260503220004 76 310 0.9 7.0 0.00 0.00 0.00 15 1015.0
20260503215005 74 270 1.7 7.0 0.00 0.00 0.00 15 1015.7
20260503214005 75 318 0.9 7.0 0.00 0.00 0.00 17 1015.7
20260503213004 74 314 0.9 7.0 0.00 0.00 0.00 16 1015.7
20260503212004 73 261 0.9 7.0 0.00 0.00 0.00 18 1015.7
20260503211005 74 295 0.9 5.2 0.00 0.00 0.00 18 1015.7
20260503210005 75 224 0.9 3.5 0.00 0.00 0.00 20 1015.7
20260503205004 74 100 0.0 2.6 0.00 0.00 0.00 23 1016.5
20260503204005 73 86 0.9 3.5 0.00 0.00 0.00 18 1016.5
20260503203004 73 27 0.9 5.2 0.00 0.00 0.00 19 1016.5
20260503202004 73 56 0.0 3.5 0.00 0.00 0.00 21 1016.5
20260503201004 70 114 0.9 3.5 0.00 0.00 0.00 22 1016.5
20260503200004 72 318 0.9 3.5 0.00 0.00 0.00 26 1016.5
20260503195005 70 5 0.9 3.5 0.00 0.00 0.00 24 1017.4
20260503194005 72 193 0.0 2.6 0.00 0.00 0.00 30 1017.4
20260503193005 70 36 0.9 4.3 0.00 0.00 0.00 24 1017.4
20260503192005 69 340 0.9 4.3 0.00 0.00 0.00 29 1017.4
20260503191004 69 346 0.9 4.3 0.00 0.00 0.00 29 1017.4
20260503190004 68 317 0.0 3.5 0.00 0.00 0.00 27 1017.4
20260503185005 66 0 0.9 4.3 0.00 0.00 0.00 29 1018.1
20260503184004 67 338 0.9 6.1 0.00 0.00 0.00 33 1018.1
20260503183004 65 294 0.9 6.1 0.00 0.00 0.00 32 1018.1
20260503182005 65 309 0.9 5.2 0.00 0.00 0.00 34 1018.1
20260503180005 63 281 0.9 5.2 0.00 0.00 0.00 34 1018.1
20260503175004 62 285 0.9 5.2 0.00 0.00 0.00 38 1018.7
20260503174004 61 347 0.9 5.2 0.00 0.00 0.00 36 1018.7
20260503173004 60 310 0.9 5.2 0.00 0.00 0.00 40 1018.7
20260503172004 59 40 0.0 2.6 0.00 0.00 0.00 40 1018.7
20260503171004 58 319 0.9 4.3 0.00 0.00 0.00 39 1018.7
20260503151005 49 309 0.0 2.6 0.00 0.00 0.00 57 1019.4